Holdrege, NE

6:12 AM CDT on August 20, 2017 (GMT -0500)
Brewster

Weather History for KHDE - December, 2012

Change the Weather History Date:

Thursday, December 6, 2012

  Actual Average Record
Temperature  
Mean Temperature 38 °F -  
Max Temperature 51 °F 40 °F 69 °F (1989)
Min Temperature 24 °F 18 °F -12 °F (1972)
Degree Days  
Heating Degree Days 27    
Moisture  
Dew Point 18 °F    
Average Humidity 39    
Maximum Humidity 70    
Minimum Humidity 22    
Precipitation  
Precipitation 0.00 in - - ()
Sea Level Pressure  
Sea Level Pressure 29.96 in    
Wind  
Wind Speed 16 mph (North)    
Max Wind Speed 28 mph    
Max Gust Speed 32 mph    
Visibility 10 miles    
Events      
Averages and records for this station are not official NWS values.
T = Trace of Precipitation, MM = Missing Value Source: NWS Daily Summary

Daily Weather History Graph

Daily Weather History Graph

Search for Another Location

Airport or City:

Trip Planner

Search our weather history database for the weather conditions in past years. The results will help you decide how hot, cold, wet, or windy it might be!

Date:

Astronomy

Dec. 06, 2012 Rise Set
Actual Time 7:46 AM CST 5:10 PM CST
Civil Twilight 7:16 AM CST 5:41 PM CST
Nautical Twilight 6:42 AM CST 6:15 PM CST
Astronomical Twilight 6:08 AM CST 6:48 PM CST
Moon 12:03 AM CST (12/6) 12:38 PM CST (12/6)
Length of Visible Light 10h 25m
Length of Day
9h 24m
Waning Gibbous, 49% of the Moon is Illuminated
Dec 6
Waning Gibbous
Dec 13
New
Dec 19
First Quarter
Dec 28
Full
Jan 4
Last Quarter

Hourly Weather History & Observations

Time (CST) Temp. Windchill Dew Point Humidity Pressure Visibility Wind Dir Wind Speed Gust Speed Precip Events Conditions
12:15 AM 47.5 °F - 21.2 °F 35% 29.83 in 10.0 mi South 15.0 mph - N/A   Clear
12:35 AM 47.3 °F - 21.2 °F 36% 29.83 in 10.0 mi South 12.7 mph 17.3 mph N/A   Clear
7:35 AM 48.6 °F - 31.3 °F 51% 29.90 in 10.0 mi North 20.7 mph 29.9 mph N/A   Clear
7:55 AM 48.2 °F - 30.2 °F 50% 29.90 in 10.0 mi North 23.0 mph 32.2 mph N/A   Clear
8:15 AM 47.3 °F - 30.0 °F 51% 29.91 in 10.0 mi North 19.6 mph 23.0 mph N/A   Clear
8:35 AM 46.9 °F - 27.7 °F 47% 29.92 in 10.0 mi North 24.2 mph 28.8 mph N/A   Clear
8:55 AM 46.9 °F - 25.5 °F 43% 29.93 in 10.0 mi North 20.7 mph 26.5 mph N/A   Clear
9:15 AM 46.9 °F - 23.2 °F 39% 29.94 in 10.0 mi NNE 23.0 mph 29.9 mph N/A   Clear
9:35 AM 46.9 °F - 21.2 °F 36% 29.93 in 10.0 mi North 23.0 mph - N/A   Clear
9:55 AM 47.3 °F - 20.8 °F 35% 29.97 in 10.0 mi North 19.6 mph 26.5 mph N/A   Clear
10:15 AM 47.3 °F - 20.1 °F 34% 29.98 in 10.0 mi North 19.6 mph 26.5 mph N/A   Clear
10:35 AM 47.7 °F - 19.9 °F 33% 29.99 in 10.0 mi North 17.3 mph 24.2 mph N/A   Clear
10:55 AM 49.5 °F - 19.4 °F 31% 29.99 in 10.0 mi North 25.3 mph - N/A   Clear
11:15 AM 50.0 °F - 18.3 °F 29% 29.96 in 10.0 mi NNE 27.6 mph - N/A   Clear
11:35 AM 51.1 °F - 18.1 °F 27% 29.97 in 10.0 mi NNE 25.3 mph 31.1 mph N/A   Clear
11:55 AM 50.7 °F - 17.6 °F 27% 29.96 in 10.0 mi NNE 24.2 mph 31.1 mph N/A   Clear
12:15 PM 51.1 °F - 16.5 °F 25% 29.96 in 10.0 mi NNE 21.9 mph 28.8 mph N/A   Clear
12:35 PM 50.5 °F - 15.6 °F 25% 29.96 in 10.0 mi North 23.0 mph 28.8 mph N/A   Clear
12:55 PM 50.2 °F - 14.5 °F 24% 29.97 in 10.0 mi North 23.0 mph 26.5 mph N/A   Clear
1:15 PM 50.0 °F - 14.4 °F 24% 29.95 in 10.0 mi NNE 23.0 mph - N/A   Clear
1:35 PM 50.4 °F - 14.7 °F 24% 29.95 in 10.0 mi North 18.4 mph 21.9 mph N/A   Clear
1:55 PM 50.4 °F - 13.8 °F 23% 29.94 in 10.0 mi NNE 23.0 mph - N/A   Clear
2:15 PM 50.2 °F - 14.0 °F 24% 29.94 in 10.0 mi North 19.6 mph 25.3 mph N/A   Clear
2:35 PM 50.9 °F - 13.3 °F 22% 29.95 in 10.0 mi North 19.6 mph 25.3 mph N/A   Clear
2:55 PM 49.3 °F - 14.4 °F 25% 29.94 in 10.0 mi NNE 20.7 mph 24.2 mph N/A   Clear
3:15 PM 49.1 °F - 13.1 °F 24% 29.94 in 10.0 mi North 17.3 mph 23.0 mph N/A   Clear
3:35 PM 48.7 °F - 12.9 °F 24% 29.94 in 10.0 mi NNE 18.4 mph - N/A   Clear
3:55 PM 48.2 °F - 14.4 °F 26% 29.94 in 10.0 mi North 16.1 mph - N/A   Clear
4:15 PM 47.7 °F - 16.0 °F 28% 29.95 in 10.0 mi North 15.0 mph - N/A   Clear
4:35 PM 46.4 °F 40.1 °F 16.7 °F 31% 29.96 in 10.0 mi North 15.0 mph 20.7 mph N/A   Clear
4:55 PM 44.8 °F 38.3 °F 16.5 °F 32% 29.97 in 10.0 mi North 13.8 mph - N/A   Clear
5:15 PM 43.0 °F 37.2 °F 16.0 °F 34% 29.97 in 10.0 mi North 10.4 mph - N/A   Clear
5:35 PM 41.7 °F 34.8 °F 15.6 °F 35% 29.96 in 10.0 mi North 12.7 mph - N/A   Clear
5:55 PM 39.6 °F 33.0 °F 14.9 °F 37% 29.97 in 10.0 mi NNE 10.4 mph - N/A   Clear
6:15 PM 39.2 °F 32.5 °F 15.6 °F 38% 29.97 in 10.0 mi NNE 10.4 mph - N/A   Clear
6:35 PM 37.2 °F 31.2 °F 15.4 °F 41% 29.97 in 10.0 mi NNE 8.1 mph - N/A   Clear
6:55 PM 36.1 °F - 15.3 °F 43% 29.97 in 10.0 mi Calm Calm - N/A   Clear
7:15 PM 34.5 °F 31.6 °F 15.3 °F 45% 29.98 in 10.0 mi North 3.5 mph - N/A   Clear
7:35 PM 34.9 °F 30.8 °F 15.6 °F 45% 29.98 in 10.0 mi NNW 4.6 mph - N/A   Scattered Clouds
7:55 PM 34.5 °F 30.4 °F 15.6 °F 46% 29.98 in 10.0 mi NNW 4.6 mph - N/A   Scattered Clouds
8:35 PM 35.1 °F 31.0 °F 16.2 °F 46% 29.99 in 10.0 mi North 4.6 mph - N/A   Scattered Clouds
8:55 PM 34.7 °F 30.6 °F 16.2 °F 47% 29.99 in 10.0 mi North 4.6 mph - N/A   Clear
9:15 PM 33.3 °F 28.9 °F 16.7 °F 51% 30.00 in 10.0 mi North 4.6 mph - N/A   Clear
9:35 PM 32.0 °F 26.4 °F 16.0 °F 52% 30.00 in 10.0 mi NW 5.8 mph - N/A   Scattered Clouds
9:55 PM 30.0 °F 26.5 °F 16.0 °F 56% 30.00 in 10.0 mi NW 3.5 mph - N/A   Scattered Clouds
10:15 PM 29.5 °F 24.5 °F 16.2 °F 58% 29.99 in 10.0 mi NW 4.6 mph - N/A   Clear
10:35 PM 28.0 °F 22.8 °F 16.2 °F 61% 30.00 in 10.0 mi NNW 4.6 mph - N/A   Clear
10:55 PM 26.4 °F 20.9 °F 15.4 °F 63% 30.00 in 10.0 mi NNW 4.6 mph - N/A   Clear
11:15 PM 25.9 °F 20.3 °F 16.2 °F 67% 30.00 in 10.0 mi NW 4.6 mph - N/A   Clear
11:35 PM 26.1 °F 20.5 °F 16.7 °F 68% 30.00 in 10.0 mi NNW 4.6 mph - N/A   Clear
11:55 PM 24.8 °F 20.5 °F 16.3 °F 70% 29.99 in 10.0 mi NNW 3.5 mph - N/A   Clear